Time,TemperatureF,DewpointF,PressureIn,WindDirection,WindDirectionDegrees,WindSpeedMPH,WindSpeedGustMPH,Humidity,HourlyPrecipIn,Conditions,Clouds,dailyrainin,SoftwareType,DateUTC
2013-08-18 00:00:00,60.1,59.0,30.19,ESE,111,1.0,1.0,95,0.00,,,0.00,weatherlink.com 1.10,2013-08-18 04:00:00,
2013-08-18 00:15:00,59.9,59.0,30.19,ESE,111,0.0,1.0,95,0.00,,,0.00,weatherlink.com 1.10,2013-08-18 04:15:00,
2013-08-18 00:30:00,59.8,59.0,30.19,ESE,111,0.0,0.0,96,0.00,,,0.00,weatherlink.com 1.10,2013-08-18 04:30:00,
2013-08-18 00:45:00,59.5,58.0,30.19,ESE,111,0.0,1.0,95,0.00,,,0.00,weatherlink.com 1.10,2013-08-18 04:45:00,
2013-08-18 01:00:00,59.5,58.0,30.19,ESE,111,0.0,1.0,96,0.00,,,0.00,weatherlink.com 1.10,2013-08-18 05:00:00,
2013-08-18 01:15:00,59.5,58.0,30.19,ESE,111,0.0,1.0,96,0.00,,,0.00,weatherlink.com 1.10,2013-08-18 05:15:00,
2013-08-18 01:30:00,59.5,58.0,30.19,ESE,111,0.0,0.0,96,0.00,,,0.00,weatherlink.com 1.10,2013-08-18 05:30:00,
2013-08-18 01:45:00,59.5,58.0,30.19,ESE,111,0.0,1.0,96,0.00,,,0.00,weatherlink.com 1.10,2013-08-18 05:45:00,
2013-08-18 02:00:00,59.3,58.0,30.18,East,86,2.0,2.0,96,0.00,,,0.00,weatherlink.com 1.10,2013-08-18 06:00:00,
2013-08-18 02:15:00,59.0,58.0,30.19,ENE,78,0.0,1.0,96,0.00,,,0.00,weatherlink.com 1.10,2013-08-18 06:15:00,
2013-08-18 02:30:00,58.5,57.0,30.19,ENE,78,0.0,1.0,96,0.00,,,0.00,weatherlink.com 1.10,2013-08-18 06:30:00,
2013-08-18 02:45:00,58.3,57.0,30.19,ENE,78,0.0,1.0,96,0.00,,,0.00,weatherlink.com 1.10,2013-08-18 06:45:00,
2013-08-18 03:00:00,58.5,58.0,30.19,ENE,78,0.0,1.0,97,0.00,,,0.00,weatherlink.com 1.10,2013-08-18 07:00:00,
2013-08-18 03:15:00,58.5,57.0,30.18,ENE,78,0.0,1.0,96,0.00,,,0.00,weatherlink.com 1.10,2013-08-18 07:15:00,
2013-08-18 03:30:00,58.5,58.0,30.18,ENE,78,0.0,0.0,97,0.00,,,0.00,weatherlink.com 1.10,2013-08-18 07:30:00,
2013-08-18 03:45:00,58.5,58.0,30.18,ENE,78,0.0,0.0,97,0.00,,,0.00,weatherlink.com 1.10,2013-08-18 07:45:00,
2013-08-18 04:00:00,58.4,58.0,30.18,ENE,78,1.0,1.0,97,0.00,,,0.00,weatherlink.com 1.10,2013-08-18 08:00:00,
2013-08-18 04:15:00,58.0,57.0,30.18,ENE,78,0.0,1.0,97,0.00,,,0.00,weatherlink.com 1.10,2013-08-18 08:15:00,
2013-08-18 04:31:00,57.9,57.0,30.18,ENE,78,1.0,1.0,97,0.00,,,0.00,weatherlink.com 1.10,2013-08-18 08:31:00,
2013-08-18 04:46:00,57.7,57.0,30.17,ENE,78,0.0,2.0,97,0.00,,,0.00,weatherlink.com 1.10,2013-08-18 08:46:00,
2013-08-18 05:01:00,57.7,57.0,30.18,ENE,78,0.0,1.0,97,0.00,,,0.00,weatherlink.com 1.10,2013-08-18 09:01:00,
2013-08-18 05:16:00,58.2,57.0,30.17,ENE,65,0.0,1.0,97,0.00,,,0.00,weatherlink.com 1.10,2013-08-18 09:16:00,
2013-08-18 05:31:00,58.1,57.0,30.18,ENE,65,0.0,2.0,97,0.00,,,0.00,weatherlink.com 1.10,2013-08-18 09:31:00,
2013-08-18 05:46:00,57.4,57.0,30.18,ENE,65,0.0,2.0,97,0.00,,,0.00,weatherlink.com 1.10,2013-08-18 09:46:00,
2013-08-18 06:01:00,57.2,56.0,30.18,ENE,65,0.0,1.0,97,0.00,,,0.00,weatherlink.com 1.10,2013-08-18 10:01:00,
2013-08-18 06:16:00,57.1,56.0,30.19,ENE,65,0.0,1.0,97,0.00,,,0.00,weatherlink.com 1.10,2013-08-18 10:16:00,
2013-08-18 06:31:00,57.4,57.0,30.19,ENE,65,0.0,1.0,97,0.00,,,0.00,weatherlink.com 1.10,2013-08-18 10:31:00,
2013-08-18 06:46:00,57.9,57.0,30.19,ENE,65,0.0,0.0,98,0.00,,,0.00,weatherlink.com 1.10,2013-08-18 10:46:00,
2013-08-18 07:01:00,58.3,58.0,30.19,NE,56,0.0,3.0,98,0.00,,,0.00,weatherlink.com 1.10,2013-08-18 11:01:00,
2013-08-18 07:16:00,58.7,58.0,30.20,NE,56,0.0,1.0,98,0.00,,,0.00,weatherlink.com 1.10,2013-08-18 11:16:00,
2013-08-18 07:31:00,59.7,59.0,30.20,NE,56,0.0,1.0,98,0.00,,,0.00,weatherlink.com 1.10,2013-08-18 11:31:00,
2013-08-18 07:46:00,60.6,60.0,30.20,NE,52,0.0,3.0,98,0.00,,,0.00,weatherlink.com 1.10,2013-08-18 11:46:00,
2013-08-18 08:01:00,61.1,61.0,30.20,ENE,63,1.0,2.0,98,0.00,,,0.00,weatherlink.com 1.10,2013-08-18 12:01:00,
2013-08-18 08:16:00,62.0,62.0,30.20,NE,39,1.0,3.0,98,0.00,,,0.00,weatherlink.com 1.10,2013-08-18 12:16:00,
2013-08-18 08:31:00,63.4,63.0,30.21,East,95,1.0,2.0,97,0.00,,,0.00,weatherlink.com 1.10,2013-08-18 12:31:00,
2013-08-18 08:46:00,65.2,63.0,30.21,East,84,2.0,5.0,93,0.00,,,0.00,weatherlink.com 1.10,2013-08-18 12:46:00,
2013-08-18 09:01:00,66.8,64.0,30.21,East,96,3.0,4.0,91,0.00,,,0.00,weatherlink.com 1.10,2013-08-18 13:01:00,
2013-08-18 09:16:00,67.9,64.0,30.21,ENE,69,3.0,6.0,88,0.00,,,0.00,weatherlink.com 1.10,2013-08-18 13:16:00,
2013-08-18 09:31:00,69.0,65.0,30.21,East,80,3.0,6.0,88,0.00,,,0.00,weatherlink.com 1.10,2013-08-18 13:31:00,
2013-08-18 09:46:00,70.0,66.0,30.20,NE,49,3.0,5.0,86,0.00,,,0.00,weatherlink.com 1.10,2013-08-18 13:46:00,
2013-08-18 10:01:00,71.2,67.0,30.21,East,91,3.0,6.0,85,0.00,,,0.00,weatherlink.com 1.10,2013-08-18 14:01:00,
2013-08-18 10:16:00,72.2,67.0,30.20,East,84,1.0,4.0,83,0.00,,,0.00,weatherlink.com 1.10,2013-08-18 14:16:00,
2013-08-18 10:31:00,72.9,67.0,30.20,ESE,109,1.0,6.0,82,0.00,,,0.00,weatherlink.com 1.10,2013-08-18 14:31:00,
2013-08-18 10:46:00,73.5,66.0,30.20,East,83,3.0,5.0,77,0.00,,,0.00,weatherlink.com 1.10,2013-08-18 14:46:00,
2013-08-18 11:01:00,74.2,65.0,30.20,ESE,108,2.0,8.0,74,0.00,,,0.00,weatherlink.com 1.10,2013-08-18 15:01:00,
2013-08-18 11:16:00,75.0,66.0,30.20,ENE,74,3.0,6.0,74,0.00,,,0.00,weatherlink.com 1.10,2013-08-18 15:16:00,
2013-08-18 11:32:00,75.4,65.0,30.20,NE,45,2.0,6.0,70,0.00,,,0.00,weatherlink.com 1.10,2013-08-18 15:32:00,
2013-08-18 11:47:00,76.2,64.0,30.19,ENE,63,5.0,9.0,66,0.00,,,0.00,weatherlink.com 1.10,2013-08-18 15:47:00,
2013-08-18 12:02:00,76.8,64.0,30.19,ESE,105,4.0,9.0,65,0.00,,,0.00,weatherlink.com 1.10,2013-08-18 16:02:00,
2013-08-18 12:17:00,76.7,63.0,30.19,ENE,77,3.0,8.0,62,0.00,,,0.00,weatherlink.com 1.10,2013-08-18 16:17:00,
2013-08-18 12:32:00,75.3,61.0,30.19,East,88,8.0,8.0,62,0.00,,,0.00,weatherlink.com 1.10,2013-08-18 16:32:00,
2013-08-18 12:47:00,74.9,61.0,30.18,NE,49,3.0,5.0,62,0.00,,,0.00,weatherlink.com 1.10,2013-08-18 16:47:00,
2013-08-18 13:02:00,77.1,62.0,30.18,South,187,5.0,10.0,60,0.00,,,0.00,weatherlink.com 1.10,2013-08-18 17:02:00,
2013-08-18 13:17:00,76.4,61.0,30.18,South,178,4.0,6.0,60,0.00,,,0.00,weatherlink.com 1.10,2013-08-18 17:17:00,
2013-08-18 13:32:00,76.2,61.0,30.18,SE,128,4.0,7.0,60,0.00,,,0.00,weatherlink.com 1.10,2013-08-18 17:32:00,
2013-08-18 13:47:00,77.9,58.0,30.17,East,94,4.0,8.0,51,0.00,,,0.00,weatherlink.com 1.10,2013-08-18 17:47:00,
2013-08-18 14:02:00,77.5,60.0,30.17,South,182,3.0,11.0,56,0.00,,,0.00,weatherlink.com 1.10,2013-08-18 18:02:00,
2013-08-18 14:17:00,76.8,61.0,30.17,ESE,111,7.0,9.0,58,0.00,,,0.00,weatherlink.com 1.10,2013-08-18 18:17:00,
2013-08-18 14:32:00,77.2,60.0,30.16,SE,131,5.0,10.0,55,0.00,,,0.00,weatherlink.com 1.10,2013-08-18 18:32:00,
2013-08-18 14:47:00,77.8,59.0,30.16,South,173,3.0,8.0,53,0.00,,,0.00,weatherlink.com 1.10,2013-08-18 18:47:00,
2013-08-18 15:02:00,78.1,60.0,30.16,East,98,3.0,8.0,54,0.00,,,0.00,weatherlink.com 1.10,2013-08-18 19:02:00,
2013-08-18 15:17:00,78.5,60.0,30.16,SE,136,3.0,6.0,53,0.00,,,0.00,weatherlink.com 1.10,2013-08-18 19:17:00,
2013-08-18 15:32:00,78.2,62.0,30.15,ENE,76,2.0,6.0,57,0.00,,,0.00,weatherlink.com 1.10,2013-08-18 19:32:00,
2013-08-18 15:47:00,78.3,59.0,30.14,SSW,210,3.0,7.0,51,0.00,,,0.00,weatherlink.com 1.10,2013-08-18 19:47:00,
2013-08-18 16:02:00,78.5,60.0,30.14,WSW,255,2.0,6.0,54,0.00,,,0.00,weatherlink.com 1.10,2013-08-18 20:02:00,
2013-08-18 16:17:00,79.0,59.0,30.14,SSW,199,0.0,7.0,51,0.00,,,0.00,weatherlink.com 1.10,2013-08-18 20:17:00,
2013-08-18 16:32:00,78.7,60.0,30.13,East,94,6.0,8.0,52,0.00,,,0.00,weatherlink.com 1.10,2013-08-18 20:32:00,
2013-08-18 16:47:00,78.2,60.0,30.14,SSW,192,2.0,8.0,53,0.00,,,0.00,weatherlink.com 1.10,2013-08-18 20:47:00,
2013-08-18 17:02:00,77.9,59.0,30.13,ESE,111,2.0,6.0,53,0.00,,,0.00,weatherlink.com 1.10,2013-08-18 21:02:00,
2013-08-18 17:17:00,78.3,59.0,30.13,SSE,161,5.0,6.0,52,0.00,,,0.00,weatherlink.com 1.10,2013-08-18 21:17:00,
2013-08-18 17:32:00,78.3,61.0,30.13,SSE,163,2.0,5.0,56,0.00,,,0.00,weatherlink.com 1.10,2013-08-18 21:32:00,
2013-08-18 17:47:00,77.6,58.0,30.13,SSW,210,1.0,6.0,51,0.00,,,0.00,weatherlink.com 1.10,2013-08-18 21:47:00,
2013-08-18 18:02:00,77.4,60.0,30.12,South,173,5.0,5.0,55,0.00,,,0.00,weatherlink.com 1.10,2013-08-18 22:02:00,
2013-08-18 18:17:00,77.3,59.0,30.12,SSE,161,4.0,8.0,53,0.00,,,0.00,weatherlink.com 1.10,2013-08-18 22:17:00,
2013-08-18 18:32:00,76.8,59.0,30.12,SSE,163,4.0,6.0,54,0.00,,,0.00,weatherlink.com 1.10,2013-08-18 22:32:00,
2013-08-18 18:47:00,76.4,59.0,30.12,SSW,193,4.0,7.0,56,0.00,,,0.00,weatherlink.com 1.10,2013-08-18 22:47:00,
2013-08-18 19:02:00,75.9,60.0,30.12,SSW,199,3.0,4.0,58,0.00,,,0.00,weatherlink.com 1.10,2013-08-18 23:02:00,
2013-08-18 19:17:00,74.8,59.0,30.12,SSW,192,3.0,3.0,58,0.00,,,0.00,weatherlink.com 1.10,2013-08-18 23:17:00,
2013-08-18 19:32:00,73.8,58.0,30.12,ESE,106,0.0,3.0,58,0.00,,,0.00,weatherlink.com 1.10,2013-08-18 23:32:00,
2013-08-18 19:47:00,73.1,58.0,30.12,SSE,157,0.0,2.0,60,0.00,,,0.00,weatherlink.com 1.10,2013-08-18 23:47:00,
2013-08-18 20:02:00,72.2,59.0,30.11,ESE,113,0.0,3.0,63,0.00,,,0.00,weatherlink.com 1.10,2013-08-19 00:02:00,
2013-08-18 20:17:00,71.4,59.0,30.11,ESE,115,0.0,2.0,65,0.00,,,0.00,weatherlink.com 1.10,2013-08-19 00:17:00,
2013-08-18 20:32:00,70.4,60.0,30.11,ESE,105,0.0,2.0,69,0.00,,,0.00,weatherlink.com 1.10,2013-08-19 00:32:00,
2013-08-18 20:47:00,69.4,61.0,30.12,ESE,111,0.0,2.0,74,0.00,,,0.00,weatherlink.com 1.10,2013-08-19 00:47:00,
2013-08-18 21:02:00,68.4,62.0,30.12,ESE,111,0.0,1.0,79,0.00,,,0.00,weatherlink.com 1.10,2013-08-19 01:02:00,
2013-08-18 21:17:00,67.6,61.0,30.12,ESE,111,0.0,1.0,78,0.00,,,0.00,weatherlink.com 1.10,2013-08-19 01:17:00,
2013-08-18 21:32:00,66.5,61.0,30.13,ESE,111,0.0,1.0,83,0.00,,,0.00,weatherlink.com 1.10,2013-08-19 01:32:00,
2013-08-18 21:47:00,65.4,60.0,30.13,ESE,111,0.0,1.0,83,0.00,,,0.00,weatherlink.com 1.10,2013-08-19 01:47:00,
2013-08-18 22:02:00,64.9,60.0,30.13,ESE,111,0.0,0.0,84,0.00,,,0.00,weatherlink.com 1.10,2013-08-19 02:02:00,
2013-08-18 22:17:00,63.9,59.0,30.13,ESE,111,0.0,1.0,85,0.00,,,0.00,weatherlink.com 1.10,2013-08-19 02:17:00,
2013-08-18 22:32:00,63.5,60.0,30.13,ESE,111,0.0,1.0,89,0.00,,,0.00,weatherlink.com 1.10,2013-08-19 02:32:00,
2013-08-18 22:47:00,63.0,60.0,30.12,ESE,111,0.0,1.0,89,0.00,,,0.00,weatherlink.com 1.10,2013-08-19 02:47:00,
2013-08-18 23:02:00,62.4,60.0,30.13,ESE,111,0.0,1.0,90,0.00,,,0.00,weatherlink.com 1.10,2013-08-19 03:02:00,
2013-08-18 23:17:00,61.8,59.0,30.12,ESE,111,0.0,0.0,91,0.00,,,0.00,weatherlink.com 1.10,2013-08-19 03:17:00,
2013-08-18 23:32:00,61.4,59.0,30.12,ESE,111,0.0,0.0,92,0.00,,,0.00,weatherlink.com 1.10,2013-08-19 03:32:00,
2013-08-18 23:47:00,61.0,59.0,30.12,ESE,111,0.0,1.0,92,0.00,,,0.00,weatherlink.com 1.10,2013-08-19 03:47:00,